Weather History for Hatteras, NC

Change the Weather History Date:

Tuesday, October 25, 2011

  Actual Average Record
Temperature  
Mean Temperature 61 °F 63 °F  
Max Temperature 69 °F 70 °F 80 °F (2007)
Min Temperature 52 °F 57 °F 33 °F (1964)
Degree Days  
Heating Degree Days 4 4  
Month to date heating degree days 28 47  
Since 1 July heating degree days 28 50  
Cooling Degree Days 0 2  
Month to date cooling degree days 95 89  
Year to date cooling degree days 2361 1681  
Growing Degree Days 10 (Base 50)    
Moisture  
Dew Point 50 °F    
Average Humidity 66    
Maximum Humidity 89    
Minimum Humidity 42    
Precipitation  
Precipitation 0.00 in 0.18 in 3.49 in (1913)
Month to date precipitation 6.60 4.39  
Year to date precipitation 53.75 47.83  
Snow  
Snow 0.00 in - - ()
Month to date snowfall 0.0  
Since 1 July snowfall 0.0  
Snow Depth 0.00 in    
Sea Level Pressure  
Sea Level Pressure 30.15 in    
Wind  
Wind Speed 5 mph (NNW)    
Max Wind Speed 13 mph    
Max Gust Speed 22 mph    
Visibility 10 miles    
Events      
T = Trace of Precipitation, MM = Missing Value Source: NWS Daily Summary

Daily Weather History Graph

Daily Weather History Graph

Search for Another Location

Airport:

Trip Planner

Search our weather history database for the weather conditions in past years. The results will help you decide how hot, cold, wet, or windy it might be!

Date:

Astronomy

Oct. 25, 2011 Rise Set
Actual Time 7:17 AM EDT 6:15 PM EDT
Civil Twilight 6:51 AM EDT 6:41 PM EDT
Nautical Twilight 6:21 AM EDT 7:11 PM EDT
Astronomical Twilight 5:51 AM EDT 7:40 PM EDT
Moon 5:47 AM EDT (10/25) 5:15 PM EDT (10/25)
Length of Visible Light 11h 50m
Length of Day
10h 58m
Waning Crescent, 2% of the Moon is Illuminated
Oct 25
Waning Crescent
Oct 26
New
Nov 2
First Quarter
Nov 10
Full
Nov 18
Last Quarter

Hourly Weather History & Observations

Time (EDT) Temp. Dew Point Humidity Pressure Visibility Wind Dir Wind Speed Gust Speed Precip Events Conditions
12:51 AM 61.0 °F 53.1 °F 75% 30.06 in 10.0 mi Variable 3.5 mph - N/A   Clear
1:51 AM 61.0 °F 53.1 °F 75% 30.06 in 10.0 mi NW 3.5 mph - N/A   Clear
2:51 AM 61.0 °F 53.1 °F 75% 30.06 in 10.0 mi NW 4.6 mph - N/A   Clear
3:51 AM 61.0 °F 54.0 °F 78% 30.06 in 10.0 mi WNW 3.5 mph - N/A   Clear
4:51 AM 61.0 °F 54.0 °F 78% 30.08 in 10.0 mi NW 5.8 mph - N/A   Clear
5:51 AM 62.1 °F 53.1 °F 72% 30.10 in 10.0 mi NW 6.9 mph - N/A   Clear
6:51 AM 61.0 °F 53.1 °F 75% 30.12 in 10.0 mi Variable 5.8 mph - N/A   Clear
7:51 AM 62.1 °F 55.0 °F 78% 30.14 in 10.0 mi NNE 9.2 mph 21.9 mph N/A   Clear
8:51 AM 64.0 °F 53.1 °F 67% 30.18 in 10.0 mi NNE 10.4 mph 17.3 mph N/A   Clear
9:51 AM 64.9 °F 51.1 °F 61% 30.20 in 10.0 mi NNE 8.1 mph 19.6 mph N/A   Clear
10:51 AM 66.0 °F 51.1 °F 59% 30.21 in 10.0 mi NNE 9.2 mph 20.7 mph N/A   Clear
11:51 AM 66.9 °F 45.0 °F 45% 30.22 in 10.0 mi NNE 10.4 mph 18.4 mph N/A   Clear
12:51 PM 66.9 °F 46.0 °F 47% 30.19 in 10.0 mi North 10.4 mph 19.6 mph N/A   Clear
1:51 PM 68.0 °F 45.0 °F 43% 30.18 in 10.0 mi NNE 12.7 mph 18.4 mph N/A   Clear
2:51 PM 68.0 °F 46.0 °F 45% 30.17 in 10.0 mi NNE 9.2 mph - N/A   Clear
3:51 PM 66.9 °F 45.0 °F 45% 30.17 in 10.0 mi Variable 4.6 mph - N/A   Clear
4:51 PM 66.9 °F 46.0 °F 47% 30.17 in 10.0 mi North 4.6 mph - N/A   Clear
5:51 PM 64.0 °F 46.9 °F 54% 30.17 in 10.0 mi Calm Calm - N/A   Clear
6:51 PM 55.9 °F 46.9 °F 72% 30.17 in 10.0 mi Calm Calm - N/A   Clear
7:51 PM 54.0 °F 46.9 °F 77% 30.17 in 10.0 mi Calm Calm - N/A   Clear
8:51 PM 53.1 °F 48.0 °F 83% 30.18 in 10.0 mi West 3.5 mph - N/A   Clear
9:51 PM 53.1 °F 48.0 °F 83% 30.18 in 10.0 mi Calm Calm - N/A   Clear
10:51 PM 53.1 °F 48.0 °F 83% 30.18 in 10.0 mi NNW 4.6 mph - N/A   Clear
11:51 PM 52.0 °F 48.0 °F 86% 30.18 in 10.0 mi West 3.5 mph - N/A   Clear